Flag Weather past 2 weeks in Toamasina, Madagascar

Now
84 °F

Scattered clouds.


Feels Like: 91 °F
Forecast: 74 / 87 °F
Wind: 2 mph from South

Location: Tamatave

Current Time: Nov 29, 2014 at 9:55:15 AM

Latest Report: Nov 29, 2014 at 9:00 AM


Visibility: N/A

Pressure: 29.89 "Hg

Humidity: 70%

Dew point: 73 °F

Location of ToamasinaLocation

Historic Weather in Toamasina — Graph

°F

Toamasina temperature yesterday

Maximum temperature yesterday: 88 °F (at 11:00 AM)
Minimum temperature yesterday: 75 °F (at 12:00 AM)
Average temperature yesterday: 81 °F

Past Weeks' High & Low Weather Summary

 TemperatureHumidityPressure
High88 °F (Nov 28, 11:00 AM)100% (Nov 15, 9:00 AM)30.07 "Hg (Nov 15, 9:00 AM)
Low66 °F (Nov 20, 5:00 AM)55% (Nov 22, 12:00 PM)29.68 "Hg (Nov 27, 3:00 PM)
Average79 °F85%29.91 "Hg
* Reported Nov 14 8:00 AM — Nov 29 8:00 AM, Toamasina, Weather by CustomWeather, © 2014

Note: Actual official high and low records may vary slightly from our data, if they occured in-between our weather recording intervals... More about our weather records

Advertising

Toamasina weather history for previous 24 hours

 ConditionsComfort  
Time TempWeatherWind HumidityBarometerVisibility
8:00 AM
Nov 29
82 °FScattered clouds.5 mph79%29.89 "HgN/A
7:00 AM82 °FScattered showers. Broken clouds.5 mph79%29.86 "HgN/A
6:00 AM79 °FScattered clouds.No wind89%29.86 "HgN/A
5:00 AM77 °FScattered clouds.No wind94%29.83 "HgN/A
4:00 AM77 °FPartly cloudy.No wind94%29.83 "HgN/A
3:00 AM77 °FPartly cloudy.No wind94%29.83 "HgN/A
2:00 AM77 °FPartly cloudy.No wind94%29.83 "HgN/A
1:00 AM77 °FPartly cloudy.No wind94%29.83 "HgN/A
12:00 AM77 °FPartly cloudy.No wind94%29.86 "HgN/A
11:00 PM
Nov 28
79 °FScattered showers. Partly cloudy.No wind94%29.86 "HgN/A
10:00 PM79 °FScattered showers. Partly cloudy.No wind94%29.86 "HgN/A
9:00 PM79 °FScattered showers. Partly cloudy.No wind94%29.86 "HgN/A
8:00 PM81 °FScattered showers. Partly cloudy.No wind89%29.86 "HgN/A
7:00 PM81 °FScattered showers. Partly cloudy.5 mph89%29.83 "HgN/A
6:00 PM81 °FScattered showers. Broken clouds.5 mph89%29.83 "HgN/A
5:00 PM82 °FScattered showers. Broken clouds.5 mph84%29.80 "HgN/A
4:00 PM82 °FScattered showers. Broken clouds.7 mph89%29.80 "HgN/A
3:00 PM84 °FBroken clouds.12 mph84%29.80 "HgN/A
2:00 PM86 °FPartly sunny.12 mph79%29.80 "HgN/A
1:00 PM86 °FPartly sunny.14 mph79%29.80 "HgN/A
12:00 PM88 °FScattered clouds.12 mph70%29.80 "HgN/A
11:00 AM88 °FScattered clouds.12 mph75%29.83 "HgN/A
10:00 AM86 °FScattered clouds.7 mph89%29.83 "HgN/A
9:00 AM84 °FPartly sunny.7 mph79%29.83 "HgN/A
Weather by CustomWeather, © 2014

See weather overviewHow to use our weather pages